Location: Alphen aan den Rijn
(52.1277°N, 4.6689°E)
Time: 09:33:52
(UTC+02:00)

OTV 5 (USA 277) - Visible Passes

Search period start: 20 June 2018 00:00
Search period end: 30 June 2018 00:00
Orbit: 313 x 320 km, 54.5° (Epoch: 18 June)

Date Brightness Start Highest point End Pass type
(mag) Time Alt. Az. Time Alt. Az. Time Alt. Az.
20 Jun ? 00:44:01 10° WNW 00:46:39 47° N 00:49:18 10° ENE visible
20 Jun ? 02:18:25 10° WNW 02:21:08 86° NNE 02:23:51 10° ESE visible
20 Jun ? 03:53:05 10° W 03:55:10 20° SW 03:57:14 10° SSE visible
20 Jun ? 23:23:59 10° W 23:26:40 61° NNW 23:29:22 10° ENE visible
21 Jun ? 00:58:32 10° WNW 01:01:12 51° N 01:03:52 10° E visible
21 Jun ? 02:32:53 10° WNW 02:35:33 53° SSW 02:37:38 15° SE visible
21 Jun ? 23:38:33 10° W 23:41:12 48° N 23:43:52 10° ENE visible
22 Jun ? 01:13:01 10° WNW 01:15:44 69° NNE 01:18:26 10° E visible
22 Jun ? 02:47:30 10° W 02:49:36 27° SW 02:49:36 27° SW visible
22 Jun ? 23:53:07 10° WNW 23:55:46 48° N 23:58:25 10° E visible
23 Jun ? 01:27:29 10° WNW 01:30:11 74° SSW 01:31:32 26° ESE visible
24 Jun ? 00:07:37 10° WNW 00:10:18 57° NNE 00:12:59 10° E visible
24 Jun ? 01:42:00 10° WNW 01:44:33 38° SSW 01:44:33 38° SSW visible
25 Jun ? 00:22:05 10° WNW 00:24:48 85° NNE 00:26:56 15° ESE visible
25 Jun ? 01:56:45 10° W 01:57:46 16° WSW 01:57:46 16° WSW visible
25 Jun ? 23:02:13 10° WNW 23:04:52 51° N 23:07:32 10° E visible
26 Jun ? 00:36:34 10° WNW 00:39:14 54° SSW 00:40:15 30° SE visible
26 Jun ? 23:16:42 10° WNW 23:19:24 68° NNE 23:22:06 10° E visible
27 Jun ? 00:51:10 10° W 00:53:34 28° SW 00:53:39 28° SSW visible
27 Jun ? 23:31:10 10° WNW 23:33:52 75° SSW 23:36:17 12° ESE visible
28 Jun ? 01:06:11 10° WSW 01:07:07 13° WSW 01:07:07 13° WSW visible
28 Jun ? 23:45:40 10° WNW 23:48:15 39° SSW 23:49:48 19° SSE visible
